Content
SEND FEEDBACK

Daily
Averages
Monthly
Summary
United States of America

CHELSEA, MICHIGAN


Home > North America > United States > Michigan
Elevation: 900 feet     Latitude: 42 19N     Longitude: 084 01W

WEATHER
 
SELECT A DAY
Number of Records: 203,747;   Date Range: 1/1/95 - 8/17/14
 
SHARE

PRINT THIS DATA

[ ← Previous Day ]
WEATHER ALMANAC - MAY 4, 2014
[ Next Day → ]
[ °C ]   °F
Weather ElementAverageHighLow
Temperature50.6 °F57 °F (11:53 am)37 °F (11:53 pm)
Dewpoint30.8 °F37.9 °F (1:53 am)25 °F (11:53 am)
Humidity49.4 %76 % (3:53 am)29 % (11:53 am)
Barometer29.94 in30.09 in (10:53 pm)29.82 in (2:53 am)
Wind Speed9.3 mph21.9 mph (11:53 am)
Wind Gust34.5 mph (10:53 am)
Weather ElementAverage
Visibility10 mi
Wind DirectionWSW (240 °)

Weather ElementTotal
Precipitation---
Heating Degree Days18 (Base 65)
Averaged from 22 records on May 4, 2014
WEATHER CONDITIONS BREAKOUT
WIND DIRECTION BREAKOUT
WEATHER BY HOUR - MAY 4, 2014
[ °C ]   °F
Local TimeTemperatureDewpointHumidityBarometerVisibilityWind DirectionWind SpeedGust SpeedPrecipitationEventsConditions
1:53 AM48.0 °F37.9 °F68 %29.84 in10.0 miWest (260°)4.6 mphOvercast
2:53 AM48.0 °F37.0 °F66 %29.82 in10.0 miWest (270°)3.5 mphOvercast
3:53 AM44.1 °F37.0 °F76 %29.83 in10.0 miWest (260°)3.5 mphOvercast
5:53 AM48.0 °F36.0 °F63 %29.84 in10.0 miNorth (350°)4.6 mphOvercast
6:53 AM46.0 °F36.0 °F68 %29.86 in10.0 miNE (40°)4.6 mphOvercast
7:53 AM48.0 °F36.0 °F63 %29.86 in10.0 miSE (130°)3.5 mphMostly Cloudy
8:53 AM50.0 °F37.0 °F61 %29.86 in10.0 miVariable5.8 mphMostly Cloudy
9:53 AM55.0 °F37.9 °F53 %29.86 in10.0 miWest (260°)10.4 mph17.3 mphPartly Cloudy
10:53 AM55.9 °F32.0 °F40 %29.88 in10.0 miNW (310°)17.3 mph34.5 mphMostly Cloudy
11:53 AM57.0 °F25.0 °F29 %29.91 in10.0 miNW (320°)21.9 mph34.5 mphPartly Cloudy
12:53 PM57.0 °F30.0 °F36 %29.93 in10.0 miNW (320°)19.6 mph31.1 mphPartly Cloudy
1:53 PM54.0 °F25.0 °F33 %29.95 in10.0 miNW (320°)19.6 mph28.8 mphClear
2:53 PM55.0 °F28.0 °F35 %29.96 in10.0 miNW (320°)18.4 mph24.2 mphPartly Cloudy
3:53 PM57.0 °F28.0 °F33 %29.97 in10.0 miNNW (340°)13.8 mph23.0 mphPartly Cloudy
4:53 PM57.0 °F27.0 °F32 %29.98 in10.0 miNorth (350°)17.3 mph25.3 mphPartly Cloudy
5:53 PM55.9 °F26.1 °F32 %30.00 in10.0 miNorth (360°)13.8 mph25.3 mphClear
6:53 PM55.0 °F25.0 °F31 %30.01 in10.0 miNorth (360°)9.2 mphClear
7:53 PM53.1 °F25.0 °F34 %30.02 in10.0 miNorth (360°)8.1 mphClear
8:53 PM50.0 °F25.0 °F38 %30.05 in10.0 miNorth (350°)5.8 mphClear
9:53 PM45.0 °F27.0 °F49 %30.07 in10.0 miCalmClear
10:53 PM37.9 °F28.9 °F70 %30.09 in10.0 miCalmClear
11:53 PM37.0 °F30.0 °F76 %30.09 in10.0 miCalmClear
Hourly data recorded from KARB, located miles away from Chelsea, Michigan







STORIES FROM OUR PARTNERS